This demonstration page uses our WeatherBlox Daily Observations layout. Learn more.

Left ArrowRight Arrow

Hourly Observations for December 19, 2017

Temp ( °F °C ) Dew Point ( °F °C ) Humidity (%) Winds ( mph kmh ) Pressure ( in mb ) Visibility ( mi km ) Precip ( " mm )
12:31 am 00:31 Mostly Cloudy with Fog 50 10 50 10 100 100 WSW 3 6 30.21 1023 0 0 0.00 0.00
12:53 am 00:53 Mostly Cloudy with Fog 49 9.4 49 9.4 100 100 Calm 30.20 1023 0 0 0.00 0.00
1:53 am 01:53 Mostly Cloudy with Fog 46 7.8 46 7.8 100 100 Calm 30.19 1023 0 0 0.00 0.00
2:22 am 02:22 Mostly Cloudy with Fog 44 6.7 44 6.7 100 100 Calm 30.21 1023 1 1 0.00 0.00
2:34 am 02:34 Mostly Cloudy with Fog 44 6.7 44 6.7 100 100 Calm 30.21 1023 0 0 0.00 0.00
2:53 am 02:53 Mostly Cloudy with Fog 44 6.7 44 6.7 100 100 Calm 30.20 1023 0 0 0.00 0.00
3:33 am 03:33 Cloudy with Fog 42 5.6 42 5.6 100 100 Calm 30.21 1023 1 1 0.00 0.00
3:38 am 03:38 Cloudy with Mist and Fog 43 6.1 43 6.1 100 100 Calm 30.21 1023 1 2 0.00 0.00
3:50 am 03:50 Cloudy with Mist and Fog 43 6 43 6 100 100 Calm 30.21 1023 3 4 0.00 0.00
3:53 am 03:53 Cloudy with Mist and Fog 43 6.1 43 6.1 100 100 Calm 30.20 1023 2 3 0.00 0.00
4:01 am 04:01 Mostly Cloudy with Fog 44 6.7 44 6.7 100 100 Calm 30.21 1023 1 1 0.00 0.00
4:15 am 04:15 Mostly Cloudy with Fog 44 6.7 44 6.7 100 100 Calm 30.21 1023 1 1 0.00 0.00
4:49 am 04:49 Cloudy with Mist and Fog 46 8 46 8 100 100 Calm 30.21 1023 1 2 0.00 0.00
4:53 am 04:53 Cloudy with Mist and Fog 46 7.8 46 7.8 100 100 Calm 30.19 1022 2 2 0.00 0.00
5:01 am 05:01 Cloudy with Mist and Fog 47 8.3 47 8.3 100 100 Calm 30.21 1023 3 5 0.00 0.00
5:18 am 05:18 Cloudy with Mist and Fog 47 8.3 47 8.3 100 100 S 3 6 30.21 1023 3 4 0.00 0.00
5:24 am 05:24 Cloudy with Mist and Fog 47 8.3 47 8.3 100 100 Calm 30.21 1023 1 1 0.00 0.00
5:32 am 05:32 Mostly Cloudy with Fog 47 8.3 47 8.3 100 100 Calm 30.21 1023 1 1 0.00 0.00
5:39 am 05:39 Mostly Cloudy with Fog 47 8.3 47 8.3 100 100 Calm 30.21 1023 0 0 0.00 0.00
5:53 am 05:53 Mostly Cloudy with Fog 47 8.3 47 8.3 100 100 Calm 30.19 1023 1 1 0.00 0.00
6:24 am 06:24 Mostly Cloudy with Fog 47 8.3 47 8.3 100 100 WSW 3 6 30.21 1023 0 0 0.00 0.00
6:37 am 06:37 Mostly Cloudy with Fog 47 8.3 47 8.3 100 100 WSW 3 6 30.21 1023 1 1 0.00 0.00
6:53 am 06:53 Mostly Cloudy with Fog 47 8.3 47 8.3 100 100 Calm 30.21 1023 1 1 0.00 0.00
7:17 am 07:17 Mostly Cloudy with Mist and Fog 47 8.3 47 8.3 100 100 Calm 30.21 1023 1 2 0.00 0.00
7:53 am 07:53 Mostly Cloudy with Mist and Fog 47 8.3 47 8.3 100 100 Calm 30.20 1023 1 2 0.00 0.00
8:27 am 08:27 Mostly Cloudy with Mist and Fog 47 8.3 47 8.3 100 100 Calm 30.21 1023 2 3 0.00 0.00
8:53 am 08:53 Cloudy with Mist and Fog 47 8.3 47 8.3 100 100 WSW 3 6 30.23 1024 1 2 0.00 0.00
9:48 am 09:48 Cloudy with Mist and Fog 48 9 48 9 100 100 Calm 30.24 1024 1 2 0.00 0.00
9:53 am 09:53 Cloudy with Mist and Fog 48 8.9 48 8.9 100 100 Calm 30.24 1024 1 2 0.00 0.00
10:09 am 10:09 Mostly Cloudy with Mist and Fog 51 10.6 51 10.6 100 100 NNE 3 6 30.24 1024 3 5 0.00 0.00
10:26 am 10:26 Partly Cloudy 52 11.1 52 11.1 100 100 E 3 6 30.24 1024 8 13 0.00 0.00
10:53 am 10:53 Sunny 54 12.2 53 11.7 97 97 NE 5 7 30.24 1024 10 16 0.00 0.00
11:53 am 11:53 Partly Cloudy 56 13.3 52 11.1 87 87 WNW 5 7 30.22 1023 10 16 0.00 0.00
12:53 pm 12:53 Cloudy 58 14.4 53 11.7 84 84 WNW 7 11 30.19 1022 10 16 0.00 0.03
1:12 pm 13:12 Cloudy 58 14.4 53 11.7 84 84 WNW 6 9 30.18 1022 10 16 0.00 0.00
1:53 pm 13:53 Mostly Cloudy 59 15 54 12.2 83 83 W 6 9 30.16 1021 10 16 0.00 0.00
2:53 pm 14:53 Cloudy 61 16.1 55 12.8 81 81 Calm 30.14 1021 10 16 0.00 0.00
3:53 pm 15:53 Cloudy 63 17.2 56 13.3 78 78 SSW 7 11 30.13 1020 10 16 0.00 0.00
4:53 pm 16:53 Cloudy 61 16.1 56 13.3 84 84 SW 5 7 30.14 1021 10 16 0.00 0.00
5:04 pm 17:04 Mostly Cloudy 61 16.1 57 13.9 87 87 SW 8 13 30.15 1021 10 16 0.00 0.00
5:53 pm 17:53 Mostly Cloudy 61 16.1 57 13.9 87 87 Calm 30.13 1020 10 16 0.00 0.00
6:53 pm 18:53 Mostly Cloudy with Light Rain 60 15.6 58 14.4 93 93 S 5 7 30.13 1020 10 16 0.00 0.03
7:53 pm 19:53 Cloudy 58 14.4 58 14.4 100 100 Calm 30.12 1020 9 14 0.00 0.03
8:29 pm 20:29 Cloudy 58 14.4 58 14.4 100 100 Calm 30.12 1020 10 16 0.00 0.00
8:53 pm 20:53 Cloudy 58 14.4 58 14.4 100 100 Calm 30.11 1020 10 16 0.00 0.00
9:16 pm 21:16 Cloudy 58 14.4 58 14.4 100 100 Calm 30.12 1020 8 13 0.00 0.00
9:53 pm 21:53 Cloudy 58 14.4 58 14.4 100 100 Calm 30.11 1020 8 13 0.00 0.00
10:00 pm 22:00 Cloudy with Mist and Fog 58 14.4 58 14.4 100 100 Calm 30.12 1020 3 5 0.00 0.00
10:32 pm 22:32 Cloudy with Mist and Fog 58 14.4 58 14.4 100 100 Calm 30.09 1019 2 3 0.00 0.00
10:41 pm 22:41 Cloudy with Mist and Fog 58 14.4 58 14.4 100 100 SSW 5 7 30.09 1019 1 1 0.00 0.00
10:53 pm 22:53 Mostly Cloudy with Mist and Fog 58 14.4 58 14.4 100 100 Calm 30.08 1019 1 1 0.00 0.00
11:03 pm 23:03 Mostly Cloudy with Fog 58 14.4 58 14.4 100 100 Calm 30.09 1019 1 1 0.00 0.00
11:27 pm 23:27 Mostly Cloudy with Mist and Fog 59 15 59 15 100 100 Calm 30.09 1019 1 2 0.00 0.00
11:53 pm 23:53 Cloudy with Mist and Fog 59 15 59 15 100 100 SSW 3 6 30.06 1018 3 4 0.00 0.00

Powered by AerisWeather